Regional Weather Roundup
Issued by NWS

Home | Current Version | Previous Version | Graphics & Text | Print | Product List | Glossary On
Versions: 1 2 3 4 5 6 7 8 9 10 11 12 13 14 15 16 17 18 19 20 21 22 23 24 25 26 27 28 29 30 31 32 33 34 35 36 37 38 39 40 41 42 43 44 45 46 47 48 49 50
000
ASUS43 KBIS 261810
RWRND

NORTH DAKOTA REGIONAL WEATHER ROUNDUP
NATIONAL WEATHER SERVICE BISMARCK ND
1200 PM CST THU FEB 26 2015

NOTE: "FAIR" INDICATES FEW OR NO CLOUDS BELOW 12,000 FEET WITH NO
SIGNIFICANT WEATHER AND/OR OBSTRUCTIONS TO VISIBILITY.


NDZ001>003-009>011-017-261900-
NORTHWEST NORTH DAKOTA

CITY           SKY/WX    TMP DP  RH WIND       PRES   REMARKS
WILLISTON      SUNNY      2  -9  60 W3        30.60S
6HR MIN TEMP: -19; 6HR MAX TEMP:   3;

MINOT          SUNNY      0 -11  59 W14       30.56S WCI -19
MINOT AFB      SUNNY     -4 -12  70 NW14      30.56S WCI -24
$$

NDZ018>021-031>035-040>046-261900-
SOUTHWEST NORTH DAKOTA

CITY           SKY/WX    TMP DP  RH WIND       PRES   REMARKS
BISMARCK       SUNNY      3  -9  57 NW10      30.59S WCI -12
6HR MIN TEMP: -10; 6HR MAX TEMP:   4;

DICKINSON      SUNNY      3  -6  66 NW8       30.48S WCI -10
GARRISON         N/A     -3 -11  68 NW13      30.56S WCI -22
6HR MIN TEMP: -17; 6HR MAX TEMP:  -3;

HETTINGER ARPT SUNNY      4  -4  69 NW8       30.49S WCI  -9
$$

NDZ004>008-012>016-024-026-027-054-261900-
NORTHEAST NORTH DAKOTA

CITY           SKY/WX    TMP DP  RH WIND       PRES   REMARKS
GRAND FORKS    SUNNY      3  -9  57 NW8       30.57S WCI -10
GRND FRKS AFB  SUNNY      4  -9  55 N10       30.56S WCI -11
DEVILS LAKE    SUNNY    N/A N/A N/A MISG        N/A
$$

NDZ022-023-025-028>030-036>039-047>053-261900-
SOUTHEAST NORTH DAKOTA

CITY           SKY/WX    TMP DP  RH WIND       PRES   REMARKS
FARGO          SUNNY      2  -9  60 NW17      30.57S WCI -18
6HR MIN TEMP: -12; 6HR MAX TEMP:   2;

JAMESTOWN      MIX PCPN  -1 -12  59 NW15      30.54R WCI -21
$$



USA.gov is the U.S. government's official web portal to all federal, state and local government web resources and services.